Buffalo, SD

10:31 PM MDT on July 29, 2016 (GMT -0600)
Buffalo

Weather History for K2WX - July, 2013

Change the Weather History Date:

Saturday, July 6, 2013

  Actual Average Record
Temperature  
Mean Temperature 74 °F 70 °F  
Max Temperature 87 °F 83 °F 100 °F (2007)
Min Temperature 61 °F 56 °F 48 °F (1999)
Degree Days  
Heating Degree Days 0 1  
Month to date heating degree days 0 6  
Since 1 June heating degree days 89 120  
Since 1 July heating degree days 0 6  
Cooling Degree Days 9 5  
Month to date cooling degree days 51 29  
Year to date cooling degree days 107 97  
Since 1 June cooling degree days 97 91  
Growing Degree Days 24 (Base 50)    
Moisture  
Dew Point 60 °F    
Average Humidity 65    
Maximum Humidity 93    
Minimum Humidity 37    
Precipitation  
Precipitation 0.00 in 0.08 in 0.43 in (2012)
Month to date precipitation 0.00 0.42  
Year to date precipitation 5.86 9.09  
Sea Level Pressure  
Sea Level Pressure 29.74 in    
Wind  
Wind Speed 9 mph (NNE)    
Max Wind Speed 18 mph    
Max Gust Speed 24 mph    
T = Trace of Precipitation, MM = Missing Value Source: NWS Daily Summary

Daily Weather History Graph

Daily Weather History Graph

Search for Another Location

Airport or City:

Trip Planner

Search our weather history database for the weather conditions in past years. The results will help you decide how hot, cold, wet, or windy it might be!

Date:

Astronomy

Jul. 06, 2013 Rise Set
Actual Time 5:12 AM MDT 8:45 PM MDT
Civil Twilight 4:34 AM MDT 9:22 PM MDT
Nautical Twilight 3:45 AM MDT 10:12 PM MDT
Astronomical Twilight 2:39 AM MDT 11:17 PM MDT
Moon 4:02 AM MDT (7/6) 7:25 PM MDT (7/6)
Length of Visible Light 16h 47m
Length of Day
15h 32m
Waning Crescent, 2% of the Moon is Illuminated
Jul 6
Waning Crescent
Jul 8
New
Jul 15
First Quarter
Jul 22
Full
Jul 29
Last Quarter

Hourly Weather History & Observations

Time (MDT) Temp. Heat Index Dew Point Humidity Pressure Visibility Wind Dir Wind Speed Gust Speed Precip Events Conditions
12:56 AM 66.0 °F - 61.0 °F 84% 29.67 in - East 8.1 mph - N/A   Unknown
1:56 AM 66.0 °F - 61.0 °F 84% 29.65 in - East 5.8 mph - N/A   Unknown
2:56 AM 62.1 °F - 60.1 °F 93% 29.65 in - Calm Calm - N/A   Unknown
3:56 AM 63.0 °F - 60.1 °F 90% 29.66 in - Calm Calm - N/A   Unknown
4:56 AM 63.0 °F - 61.0 °F 93% 29.68 in - NNE 3.5 mph - N/A   Unknown
5:56 AM 63.0 °F - 61.0 °F 93% 29.69 in - NNE 5.8 mph - N/A   Unknown
6:56 AM 64.9 °F - 62.1 °F 90% 29.70 in - NE 3.5 mph - N/A   Unknown
7:56 AM 68.0 °F - 63.0 °F 84% 29.71 in - Calm Calm - N/A   Unknown
8:56 AM 73.0 °F - 63.0 °F 71% 29.73 in - West 9.2 mph - N/A   Unknown
9:56 AM 78.1 °F - 63.0 °F 60% 29.73 in - NW 8.1 mph - N/A   Unknown
10:56 AM 81.0 °F 81.6 °F 60.1 °F 49% 29.73 in - NW 12.7 mph - N/A   Unknown
11:56 AM 82.0 °F 82.0 °F 57.9 °F 44% 29.74 in - NNW 15.0 mph 21.9 mph N/A   Unknown
12:56 PM 84.0 °F 83.5 °F 57.9 °F 41% 29.74 in - NNW 15.0 mph 24.2 mph N/A   Unknown
1:56 PM 84.9 °F 84.4 °F 59.0 °F 41% 29.75 in - North 13.8 mph 19.6 mph N/A   Unknown
2:56 PM 82.9 °F 82.6 °F 57.9 °F 42% 29.75 in - North 13.8 mph 21.9 mph N/A   Unknown
3:56 PM 86.0 °F 85.0 °F 57.9 °F 38% 29.76 in - North 13.8 mph 19.6 mph N/A   Unknown
4:56 PM 82.9 °F 82.4 °F 57.0 °F 41% 29.77 in - NNE 12.7 mph - N/A   Unknown
5:56 PM 84.0 °F 83.3 °F 57.0 °F 40% 29.76 in - North 10.4 mph 18.4 mph N/A   Unknown
6:56 PM 82.9 °F 82.8 °F 59.0 °F 44% 29.77 in - North 12.7 mph - N/A   Unknown
7:56 PM 78.1 °F - 60.1 °F 54% 29.79 in - NNE 10.4 mph - N/A   Unknown
8:56 PM 70.0 °F - 61.0 °F 73% 29.80 in - NNE 10.4 mph - N/A   Unknown
9:56 PM 69.1 °F - 57.9 °F 68% 29.84 in - NNE 10.4 mph - N/A   Unknown
10:56 PM 66.9 °F - 57.0 °F 70% 29.83 in - NE 10.4 mph - N/A   Unknown
11:56 PM 66.0 °F - 55.9 °F 70% 29.82 in - NNE 11.5 mph - N/A   Unknown